Location: Litvinovka
(48.6667°N, 34.3500°E)
Time: 01:37:26
(UTC+00:00)

USA 238 - Pass Details

Date: 18 September 2020
Orbit: 1006 x 1206 km, 63.4° (Epoch: 15 October)

Event Time Altitude Azimuth Distance (km) Brightness Sun altitude
Rises 17:44:34 0° 318° (NW) 3,936 7.9 -19.3°
Reaches altitude 10° 17:47:12 10° 318° (NW) 3,003 7.1 -19.7°
Maximum altitude 17:54:25 85° 231° (SW) 1,170 3.8 -20.8°
Enters shadow 17:58:17 32° 145° (SE) 1,906 4.5 -21.3°
